Regional Weather Roundup
Issued by NWS Upton, NY

Current Version | Previous Version | Graphics & Text | Print | Product List | Glossary Off
Versions: 1 2 3 4 5 6 7 8 9 10 11 12 13 14 15 16 17 18 19 20 21 22 23 24 25 26 27 28 29 30 31 32 33 34 35 36 37 38 39 40 41 42 43 44 45 46 47 48 49 50

055
ASUS41 KOKX 240605
RWROKX

REGIONAL WEATHER ROUNDUP
NATIONAL WEATHER SERVICE NEW YORK NY
200 AM EDT WED AUG 24 2016

NOTE: "FAIR" INDICATES FEW OR NO CLOUDS BELOW 12,000 FEET WITH NO
SIGNIFICANT WEATHER AND/OR OBSTRUCTIONS TO VISIBILITY.

NYZ071-072-176-178-NJZ106-104-240700-
NEW YORK CITY METRO AREA

CITY           SKY/WX    TMP DP  RH WIND       PRES   REMARKS
Central Park   CLEAR     70  57  63 CALM      30.30F
LaGuardia APRT CLEAR     73  58  59 SW7       30.26F
Kennedy INTL   CLEAR     70  64  81 SW7       30.28F
Newark/Liberty CLEAR     68  58  70 SW8       30.27F
Bronx Bot Gard   N/A     68  57  68 SE2       30.29R
Wall St Helipt CLEAR     72  63  73 W6        30.28F
Teterboro      CLEAR     68  57  68 SW3       30.26F
$$

NYZ177-179-078>081-240700-
LONG ISLAND NEW YORK

CITY           SKY/WX    TMP DP  RH WIND       PRES   REMARKS
Farmingdale    CLEAR     68  60  75 SW3       30.28F
MacArthur/ISP  CLEAR     68  62  81 SW5       30.27F
Shirley        CLEAR     65  60  84 CALM      30.28F
Riverhead      NOT AVBL
Westhampton    CLEAR     57  54  89 CALM      30.30S
Southampton      N/A     70  64  83 SW3       30.24F
Bridgehampton    N/A     63  59  88 CALM      30.28S
East Hampton   FAIR      58  56  92 CALM      30.27F
Montauk          N/A     68  62  81 SW3       30.29S
$$

NYZ052-065-067-240700-
HUDSON VALLEY

CITY           SKY/WX    TMP DP  RH WIND       PRES   REMARKS
White Plains   CLEAR     65  62  90 CALM      30.27F
Newburgh       CLEAR     63  61  94 CALM      30.29F
Montgomery     CLEAR     59  57  93 CALM      30.28F
Poughkeepsie   CLEAR     62  58  86 CALM      30.26F
Albany         PTCLDY    61  58  90 CALM      30.26F
$$

NJZ001-105-106-008-010-013-015-019>022-104-240700-
NEW JERSEY

CITY           SKY/WX    TMP DP  RH WIND       PRES   REMARKS
Newark/Liberty CLEAR     68  58  70 SW8       30.27F
Teterboro      CLEAR     68  57  68 SW3       30.26F
Caldwell         N/A     64  58  80 CALM      30.28F
Morristown     CLEAR     57  57 100 CALM      30.28F
Somerville     PTCLDY    59  57  93 CALM      30.27F FOG
Linden         FAIR      67  57  68 CALM      30.30S
Sussex         CLEAR     58  57  97 CALM      30.29F
Abdover          N/A     57  56  96 CALM      30.30F
Trenton        CLEAR     63  58  83 CALM      30.28F
Millville      CLEAR     60  60 100 CALM      30.30S
Atlantic City    N/A     61  55  82 CALM      30.29F
Wrightstown    CLEAR     62  58  87 SW1       30.26F
Toms River     CLEAR     56  54  93 CALM      30.29F
Belmar         CLEAR     64  58  80 SW6       30.29F
$$

PAZ047>061-062-071-240700-
EASTERN PENNSYLVANIA

CITY           SKY/WX    TMP DP  RH WIND       PRES   REMARKS
Philadelphia   CLEAR     70  62  76 W7        30.29S
Allentown      CLEAR     62  58  86 CALM      30.29F
Scranton       CLEAR     61  56  83 E7        30.29F
$$

CTZ002-004>006-009-010-012-RIZ004-006-007-MAZ004-011-015-240700-
SOUTHERN NEW ENGLAND
 IN CT

CITY           SKY/WX    TMP DP  RH WIND       PRES   REMARKS
Bradley INTL   PTCLDY    62  57  83 CALM      30.27F
Hartford       CLEAR     66  61  84 S3        30.26F
Danbury        CLEAR     58  56  93 SW5       30.29F
Wtrbury/Oxford   N/A     59  54  82 CALM      30.30S
Bridgeport     CLEAR     69  61  75 CALM      30.27S
Meriden        CLEAR     60  56  86 CALM      30.27F
New Haven      CLEAR     64  60  87 CALM      30.27F
Chester        FAIR      66  63  88 VRB3      30.28F
Groton         CLEAR     70  63  78 SW3       30.26F
Wilimantic     CLEAR     60  58  92 CALM      30.28S

 IN RI

CITY           SKY/WX    TMP DP  RH WIND       PRES   REMARKS
Providence     CLEAR     64  58  80 W8        30.27S
Block Island   CLEAR     68  62  81 SW9       30.28S
Westerly       CLEAR     65  60  84 CALM      30.28S
 IN MA

CITY           SKY/WX    TMP DP  RH WIND       PRES   REMARKS
Boston         CLEAR     68  57  68 SW8       30.24F
Worcester      CLEAR     60  53  77 SW6       30.27F
Westfield      CLEAR     57  56  96 CALM      30.26F
Provincetown   CLEAR     65  60  84 SW9       30.26S
Nantucket      CLEAR     65  60  84 W7        30.27S
$$

ANZ330-335-338-340-345-350-353-355-240700-
COASTAL MARINE OBSERVATIONS


STATION/POSITION TIME  SKY/WX   TEMP    WIND        PRES    VSBY  WAVE
                                AIR SEA DIR/SP/G                  HT/PER
                 (UTC)          (F)     (DEG/KT/KT) (MB)    (MI)  (FT/S)
NY HARB ENTRANCE 0450            74 77  240/ 14/ 17 1025.0          2/ 4
20S FIRE ISLAND  0450            74 76  220/ 12/ 14 1025.2          2/ 3
GREAT SOUTH BAY  0500            75 79  230/ 12/ 14   N/A
23 SSW MONTAUK P 0450            74 74  240/ 12/ 14 1025.5          2/ 9
15 E BARNEGAT LI 0500               77                N/A           2/10
HUDSON CANYON    0450            73 77              1025.6          2/ 7
KINGS POINT      0500            72 76              1025.2
EXECUTION ROCKS  0500            73     200/  8/ 10   N/A
CENTRAL LI SOUND 0500            73 75  240/ 14/ 16   N/A           2/ 4
EASTERN LI SOUND 0500            71 70  250/  8/ 10   N/A
ROBBINS REEF     0500            70     240/  5/  7 1024.9
$$


>>>>>>>>>>>>>>>>>>>>>>>>>>>> KEY <<<<<<<<<<<<<<<<<<<<<<<<<<<
>                                                          <
>     SKY/WX - Sky Condition/Present Weather               <
>     TMP    - Temperature in Fahrenheit                   <
>     DP     - Dew Point in Fahrenheit                     <
>     RH     - Relative Humidity in Percent                <
>     WIND   - Direction (from) and Speed in MPH           <
>     PRES   - Mean Sea Level Pressure (inches of Hg)      <
>     WCI    - Wind Chill Index                            <
>     VSB    - VISIBILITY IN MILES                         <
>     HX     - HEAT INDEX                                  <
>     TC     - TEMPERATURE IN CELSIUS                      <
>     VRB    - VARIABLE WIND DIRECTION                     <
>                                                          <
>>>>>>>>>>>>>>>>>>>>>>>>>>>> KEY <<<<<<<<<<<<<<<<<<<<<<<<<<<




USA.gov is the U.S. government's official web portal to all federal, state and local government web resources and services.